Hourly Data Report for August 18, 2004

SHERBROOKE A
QUEBEC

45°26'00.000" N
71°41'00.000" W
241.40 m
7028124
71610
YSC

Download Data

Hourly Data (August 2004)
Hourly Data Report for August 18, 2004
TIME
LST
Temp Definition
°C
Dew Point Definition
°C
Rel Hum Definition
%
Precip. Amount Definition
mm

Wind Dir Definition
10's deg

Wind Spd Definition
km/h
Visibility Definition
km
Stn Press Definition
kPa
Hmdx Definition


Wind Chill Definition


Weather Definition


00:00 13.5 12.1 91     0 15.0 98.74      
01:00 12.2 11.0 92   12 7 15.0 98.70      
02:00 11.4 10.7 95     0 12.9 98.69      
03:00 11.9 11.1 95   10 4 15.0 98.65      
04:00 12.1 11.1 94   9 4 15.0 98.65      
05:00 12.4 11.4 94   8 6 15.0 98.65      
06:00 14.2 12.9 92   10 6 15.0 98.66      
07:00 15.8 13.7 87   18 4 19.3 98.69     Mostly Cloudy
08:00 16.6 14.3 86   14 6 19.3 98.67     Cloudy
09:00 17.8 14.8 83     0 19.3 98.68     Mostly Cloudy
10:00 21.1 15.3 69   23 19 24.1 98.65 25   Mostly Cloudy
11:00 22.1 15.3 65   24 13 24.1 98.61 26   Mostly Cloudy
12:00 22.9 14.9 61   21 9 24.1 98.56 27   Mostly Cloudy
13:00 23.6 15.7 61   24 13 24.1 98.52 28   Mostly Cloudy
14:00 24.1 15.6 59   24 13 24.1 98.45 28   Mostly Cloudy
15:00 24.8 15.2 55   23 11 24.1 98.44 29   Mostly Cloudy
16:00 23.8 15.5 60   20 7 24.1 98.40 28   Mostly Cloudy
17:00 24.0 16.0 61   21 7 15.0 98.40 29    
18:00 22.2 15.9 67   15 6 12.9 98.38 27    
19:00 19.2 15.3 78   15 9 9.7 98.39      
20:00 19.1 15.1 78   16 7 9.7 98.41      
21:00 18.8 15.0 79   16 4 8.0 98.41      
22:00 16.6 14.9 90   5 4 4.8 98.42      
23:00 15.3 13.8 91     0 3.4 98.42      

Notes on Data Quality.

Legend

  • E = Estimated
  • M = Missing
  • NA = Not Available*
  • [empty] = Indicates an unobserved value
Date modified: